{"data":{"norad_id":65026,"intl_designator":"2025-161M","name":"STARLINK-34804","alt_names":[],"object_type":"PAYLOAD","status":"ACTIVE","operator":null,"country":"US","launch_date":"2025-07-30","launch_site_code":"AFWTR","launch_vehicle":null,"mission":null,"orbit_class":"UNKNOWN","rcs_meters":null,"size_class":null,"mass_kg":null,"dimensions":null,"purposes":["comms"],"wikipedia_slug":null,"has_3d_model":false,"image_url":null,"decayed_at":null,"tle_current":{"epoch":"2026-05-25T03:19:37.110144Z","epoch_age_seconds":66103,"freshness":"FRESH","line1":"1 65026U 25161M   26145.13862396  .00018453  00000+0  63339-3 0  9997","line2":"2 65026  53.1597 299.1647 0001686  85.3283 274.7910 15.30211393 47042","mean_motion":15.30211393,"eccentricity":0.0001686,"inclination_deg":53.1597,"raan_deg":299.1647,"arg_perigee_deg":85.3283,"mean_anomaly_deg":274.791,"bstar":0.00063339,"rev_number":4704,"period_min":94.104645056711,"perigee_km":474.02558276239,"apogee_km":476.33652160959,"semimajor_km":6853.318052186,"source":"CELESTRAK","updated_at":"2026-05-25T13:38:20.669956Z"}}}